LRFT Weather Reports


Display with metric or nautical units.
time (UTC)temp
F
wind
direction
speed
MPH
gust
MPH
rain 1hr
in
rain 24hr
in
rain mn
in
humidity
%
barometer
mb
20260510184857 61 3.0 0.0 0.00 0.00 0.00 77 1014.0
20260510183359 61 3.0 0.0 0.00 0.00 0.00 77 1014.0
20260510181859 61 3.0 0.0 0.00 0.00 0.00 77 1014.0
20260510180400 61 3.0 0.0 0.00 0.00 0.00 77 1014.0
20260510174900 66 3.0 0.0 0.00 0.00 0.00 68 1014.0
20260510173359 66 3.0 0.0 0.00 0.00 0.00 68 1014.0
20260510171859 66 3.0 0.0 0.00 0.00 0.00 68 1014.0
20260510170359 66 3.0 0.0 0.00 0.00 0.00 68 1014.0
20260510164859 68 60 5.0 0.0 0.00 0.00 0.00 60 1014.0
20260510163359 68 60 5.0 0.0 0.00 0.00 0.00 60 1014.0
20260510161859 68 60 5.0 0.0 0.00 0.00 0.00 60 1014.0
20260510160359 68 60 5.0 0.0 0.00 0.00 0.00 60 1014.0
20260510154900 68 360 9.0 0.0 0.00 0.00 0.00 64 1014.0
20260510153402 68 360 9.0 0.0 0.00 0.00 0.00 64 1014.0
20260510151859 68 360 9.0 0.0 0.00 0.00 0.00 64 1014.0
20260510150359 68 360 9.0 0.0 0.00 0.00 0.00 64 1014.0
20260510144859 70 340 9.0 0.0 0.00 0.00 0.00 60 1014.0
20260510143359 70 340 9.0 0.0 0.00 0.00 0.00 60 1014.0
20260510141900 70 340 9.0 0.0 0.00 0.00 0.00 60 1014.0
20260510140400 70 340 9.0 0.0 0.00 0.00 0.00 60 1014.0
20260510134900 66 350 14.0 0.0 0.00 0.00 0.00 73 1015.0
20260510133359 66 350 14.0 0.0 0.00 0.00 0.00 73 1015.0
20260510131859 66 350 14.0 0.0 0.00 0.00 0.00 73 1015.0
20260510130408 66 350 14.0 0.0 0.00 0.00 0.00 73 1015.0
20260510124926 64 340 14.0 0.0 0.00 0.00 0.00 78 1015.0
20260510123359 64 340 14.0 0.0 0.00 0.00 0.00 78 1015.0
20260510121856 64 340 14.0 0.0 0.00 0.00 0.00 78 1015.0
20260510120503 64 340 14.0 0.0 0.00 0.00 0.00 78 1015.0
20260510114901 64 340 16.0 0.0 0.00 0.00 0.00 78 1015.0
20260510113359 64 340 16.0 0.0 0.00 0.00 0.00 78 1015.0
20260510111856 64 340 16.0 0.0 0.00 0.00 0.00 78 1015.0
20260510110356 64 340 16.0 0.0 0.00 0.00 0.00 78 1015.0
20260510104900 63 330 14.0 0.0 0.00 0.00 0.00 83 1015.0
20260510103400 63 330 14.0 0.0 0.00 0.00 0.00 83 1015.0
20260510101859 63 330 14.0 0.0 0.00 0.00 0.00 83 1015.0
20260510100407 63 330 14.0 0.0 0.00 0.00 0.00 83 1015.0
20260510094901 63 320 11.0 0.0 0.00 0.00 0.00 83 1015.0
20260510093400 63 320 11.0 0.0 0.00 0.00 0.00 83 1015.0
20260510091906 63 320 11.0 0.0 0.00 0.00 0.00 83 1015.0
20260510090400 63 320 11.0 0.0 0.00 0.00 0.00 83 1015.0
20260510084856 61 340 9.0 0.0 0.00 0.00 0.00 88 1015.0
20260510083359 61 340 9.0 0.0 0.00 0.00 0.00 88 1015.0
20260510081859 61 340 9.0 0.0 0.00 0.00 0.00 88 1015.0
20260510080359 61 340 9.0 0.0 0.00 0.00 0.00 88 1015.0
20260510074859 61 340 7.0 0.0 0.00 0.00 0.00 88 1015.0
20260510073409 61 340 7.0 0.0 0.00 0.00 0.00 88 1015.0
20260510071855 61 340 7.0 0.0 0.00 0.00 0.00 88 1015.0
20260510070401 61 340 7.0 0.0 0.00 0.00 0.00 88 1015.0
20260510064855 59 310 7.0 0.0 0.00 0.00 0.00 94 1015.0
20260510063359 59 310 7.0 0.0 0.00 0.00 0.00 94 1015.0
20260510061856 59 310 7.0 0.0 0.00 0.00 0.00 94 1015.0
20260510060359 59 310 7.0 0.0 0.00 0.00 0.00 94 1015.0
20260510054856 55 2.0 0.0 0.00 0.00 0.00 100 1015.0
20260510053407 55 2.0 0.0 0.00 0.00 0.00 100 1015.0
20260510051859 55 2.0 0.0 0.00 0.00 0.00 100 1015.0
20260510050359 55 2.0 0.0 0.00 0.00 0.00 100 1015.0
20260510044857 55 2.0 0.0 0.00 0.00 0.00 100 1014.0
20260510043359 55 2.0 0.0 0.00 0.00 0.00 100 1014.0
20260510041859 55 2.0 0.0 0.00 0.00 0.00 100 1014.0
20260510040359 55 2.0 0.0 0.00 0.00 0.00 100 1014.0
20260510034853 55 2.0 0.0 0.00 0.00 0.00 100 1014.0
20260510033405 55 2.0 0.0 0.00 0.00 0.00 100 1014.0
20260510031857 55 2.0 0.0 0.00 0.00 0.00 100 1014.0
20260510030400 55 2.0 0.0 0.00 0.00 0.00 100 1014.0
20260510024854 55 100 3.0 0.0 0.00 0.00 0.00 100 1014.0
20260510023401 55 100 3.0 0.0 0.00 0.00 0.00 100 1014.0
20260510021853 55 100 3.0 0.0 0.00 0.00 0.00 100 1014.0
20260510020359 55 100 3.0 0.0 0.00 0.00 0.00 100 1014.0
20260510014857 55 100 3.0 0.0 0.00 0.00 0.00 100 1014.0
20260510013359 0 0.0 0.0 0.00 0.00 0.00
20260510011856 0 0.0 0.0 0.00 0.00 0.00
20260510010400 0 0.0 0.0 0.00 0.00 0.00
20260510004856 55 100 3.0 0.0 0.00 0.00 0.00 100 1014.0
20260510003400 55 100 3.0 0.0 0.00 0.00 0.00 100 1014.0
20260510001857 55 100 3.0 0.0 0.00 0.00 0.00 100 1014.0
20260510000359 55 100 3.0 0.0 0.00 0.00 0.00 100 1014.0
20260509234857 0 0.0 0.0 0.00 0.00 0.00
20260509233414 0 0.0 0.0 0.00 0.00 0.00
20260509231856 0 0.0 0.0 0.00 0.00 0.00
20260509230359 0 0.0 0.0 0.00 0.00 0.00
20260509224854 57 120 7.0 0.0 0.00 0.00 0.00 94 1015.0
20260509223359 57 120 7.0 0.0 0.00 0.00 0.00 94 1015.0
20260509221850 57 120 7.0 0.0 0.00 0.00 0.00 94 1015.0
20260509220356 0 0.0 0.0 0.00 0.00 0.00
20260509214854 57 120 7.0 0.0 0.00 0.00 0.00 94 1015.0
20260509213359 57 120 7.0 0.0 0.00 0.00 0.00 94 1015.0
20260509211854 0 0.0 0.0 0.00 0.00 0.00
20260509210359 0 0.0 0.0 0.00 0.00 0.00
20260509204906 57 120 7.0 0.0 0.00 0.00 0.00 94 1015.0
20260509203400 57 120 7.0 0.0 0.00 0.00 0.00 94 1015.0
20260509201857 57 120 7.0 0.0 0.00 0.00 0.00 94 1015.0
20260509200359 0 0.0 0.0 0.00 0.00 0.00
20260509194857 57 110 7.0 0.0 0.00 0.00 0.00 94 1015.0
20260509193359 57 110 7.0 0.0 0.00 0.00 0.00 94 1015.0
20260509191856 57 110 7.0 0.0 0.00 0.00 0.00 94 1015.0
20260509190359 57 110 7.0 0.0 0.00 0.00 0.00 94 1015.0